Simultaneous Nadir Overpasses (SNOs) Predictions

Prediction of SNOs between AURA and LANDSAT-8 Satellite Orbit:

Table of predicted SNOs for the next 14.0 days since TLE Epoch: 3/8/2025
Index Date (AURA) Time (AURA) Lat,Lon (AURA) SZA (AURA ) Date (LANDSAT-8) Time (LANDSAT-8) Lat,Lon (LANDSAT-8) SZA (LANDSAT-8 ) Distance(km) Time Diff (sec)
1 03/21/2025 07:23:06 72.71, 72.46 72.25 03/21/2025 07:22:00 72.74, 69.96 72.28 82.39 66
2 03/21/2025 08:12:32 -73.04,-120.52 107.44 03/21/2025 08:11:22 -73.05,-121.79 107.43 41.35 70
3 03/21/2025 09:01:56 73.19, 46.83 72.70 03/21/2025 09:00:45 73.16, 46.07 72.67 24.66 71
4 03/21/2025 09:51:19 -73.36,-145.84 107.15 03/21/2025 09:50:09 -73.37,-145.87 107.14 1.55 70
5 03/21/2025 10:40:40 73.35, 21.83 72.84 03/21/2025 10:39:34 73.37, 21.78 72.85 2.32 66
6 03/21/2025 11:30:00 -73.36,-170.52 107.18 03/21/2025 11:29:02 -73.37,-170.59 107.17 2.51 58
7 03/21/2025 12:19:21 73.36, -2.85 72.81 03/21/2025 12:18:27 73.37, -2.94 72.83 3.09 54
8 03/21/2025 13:08:42 -73.42, 164.69 107.15 03/21/2025 13:07:54 -73.42, 164.79 107.15 3.14 48
9 03/21/2025 13:58:02 73.42, -27.64 72.84 03/21/2025 13:57:18 73.42, -27.55 72.85 2.93 44
10 03/21/2025 14:47:22 -73.42, 140.01 107.17 03/21/2025 14:46:46 -73.42, 140.07 107.17 1.80 36
11 03/21/2025 15:36:43 73.42, -52.32 72.82 03/21/2025 15:36:11 73.42, -52.27 72.82 1.46 32
12 03/21/2025 16:26:03 -73.42, 115.34 107.19 03/21/2025 16:25:39 -73.42, 115.35 107.20 0.97 24
13 03/21/2025 17:15:24 73.42, -77.00 72.80 03/21/2025 17:15:04 73.42, -77.00 72.80 0.28 20
14 03/21/2025 18:04:44 -73.43, 90.66 107.22 03/21/2025 18:04:32 -73.42, 90.63 107.23 1.73 12
15 03/21/2025 18:54:05 73.43,-101.68 72.78 03/21/2025 18:53:57 73.42,-101.72 72.77 1.54 8
16 03/21/2025 19:43:25 -73.43, 65.98 107.24 03/21/2025 19:43:25 -73.42, 65.90 107.26 3.07 0
17 03/21/2025 20:32:46 73.43,-126.36 72.75 03/21/2025 20:32:50 73.42,-126.44 72.74 3.01 4
18 03/21/2025 21:22:06 -73.44, 41.30 107.26 03/21/2025 21:22:17 -73.47, 41.29 107.23 3.31 11
19 03/21/2025 22:11:28 73.49,-151.15 72.78 03/21/2025 22:11:42 73.47,-151.05 72.77 3.56 14
20 03/21/2025 23:00:47 -73.44, 16.62 107.28 03/21/2025 23:01:10 -73.47, 16.57 107.26 3.18 23
21 03/21/2025 23:50:09 73.49,-175.83 72.76 03/21/2025 23:50:35 73.47,-175.77 72.74 3.00 26
22 03/22/2025 00:39:29 -73.50, -8.17 107.25 03/22/2025 00:40:03 -73.47, -8.15 107.29 3.67 34
23 03/22/2025 01:28:50 73.50, 159.49 72.74 03/22/2025 01:29:28 73.47, 159.50 72.71 3.12 38
24 03/22/2025 02:18:10 -73.50, -32.85 107.28 03/22/2025 02:18:55 -73.52, -32.76 107.26 3.10 45
25 03/22/2025 03:07:31 73.50, 134.82 72.72 03/22/2025 03:08:20 73.52, 134.89 72.74 3.22 49



Historial Predications of SNOs between AURA and LANDSAT-8
